{"data":{"norad_id":65834,"epoch":"2026-05-25T01:43:11.653824Z","epoch_age_seconds":62640,"freshness":"FRESH","line1":"1 65834U 25221M   26145.07166266  .00017499  00000+0  60125-3 0  9996","line2":"2 65834  53.1575  93.8526 0001061  83.1432 276.9689 15.30215465 36420","mean_motion":15.30215465,"eccentricity":0.0001061,"inclination_deg":53.1575,"raan_deg":93.8526,"arg_perigee_deg":83.1432,"mean_anomaly_deg":276.9689,"bstar":0.00060125,"rev_number":3642,"period_min":94.104394638307,"perigee_km":474.44175835044,"apogee_km":475.89602986117,"semimajor_km":6853.3058941058,"source":"CELESTRAK","updated_at":"2026-05-25T13:38:20.944046Z"}}